{"data":{"norad_id":66150,"intl_designator":"2025-240E","name":"STARLINK-35605","alt_names":[],"object_type":"PAYLOAD","status":"ACTIVE","operator":null,"country":"US","launch_date":"2025-10-25","launch_site_code":"AFWTR","launch_vehicle":null,"mission":null,"orbit_class":"UNKNOWN","rcs_meters":null,"size_class":null,"mass_kg":null,"dimensions":null,"purposes":["comms"],"wikipedia_slug":null,"has_3d_model":false,"image_url":null,"decayed_at":null,"tle_current":{"epoch":"2026-09-20T06:08:11.945184Z","epoch_age_seconds":121516,"freshness":"FRESH","line1":"1 66150U 25240E   26263.25569381  .00015022  00000+0  45473-3 0  9994","line2":"2 66150  53.1587 236.5062 0001293  70.3291 289.7851 15.34407472 51812","mean_motion":15.34407472,"eccentricity":0.0001293,"inclination_deg":53.1587,"raan_deg":236.5062,"arg_perigee_deg":70.3291,"mean_anomaly_deg":289.7851,"bstar":0.00045473,"rev_number":5181,"period_min":93.847301077272,"perigee_km":461.79651416705,"apogee_km":463.5655497101,"semimajor_km":6840.8180319386,"source":"CELESTRAK","updated_at":"2026-09-21T09:00:35.812976Z"}}}